Location: UBC Liquid-Mirror Observatory
(49.2876°N, 122.5728°W)
Time: 06:01:35
(UTC-07:00)

KITSAT 1 - Visible Passes

Search period start: 19 August 2017 00:00
Search period end: 29 August 2017 00:00
Orbit: 1306 x 1325 km, 66.1° (Epoch: 18 August)

Date Brightness Start Highest point End Pass type
(mag) Time Alt. Az. Time Alt. Az. Time Alt. Az.
19 Aug 10.7 01:13:23 10° NW 01:21:25 58° NE 01:27:18 20° ESE visible
19 Aug 10.5 03:09:05 10° NW 03:16:42 46° WSW 03:19:10 36° SSW visible
19 Aug 12.2 21:36:14 10° WNW 21:42:37 24° N 21:49:02 10° NE visible
19 Aug 11.7 23:33:46 10° NW 23:40:51 31° NNE 23:47:56 10° E visible
20 Aug 10.3 01:29:29 10° NW 01:37:40 74° NE 01:41:42 34° SE visible
20 Aug 10.8 03:25:30 10° NW 03:32:28 33° WSW 03:33:35 31° WSW visible
20 Aug 12.1 21:53:05 10° NW 21:59:27 24° N 22:05:49 10° NE visible
20 Aug 11.4 23:50:01 10° NW 23:57:28 37° NNE 00:04:25 12° E visible
21 Aug 10.1 01:45:36 10° NW 01:53:47 85° SW 01:56:19 50° SSE visible
21 Aug 11.3 03:42:12 10° WNW 03:48:06 23° WSW 03:48:13 23° WSW visible
21 Aug 12.0 22:09:47 10° NW 22:16:16 25° N 22:22:45 10° ENE visible
22 Aug 11.0 00:06:11 10° NW 00:13:57 45° NE 00:19:11 21° E visible
22 Aug 10.2 02:01:46 10° NW 02:09:47 64° WSW 02:11:05 57° SSW visible
22 Aug 11.7 03:59:30 10° WNW 04:03:00 15° W 04:03:00 15° W visible
22 Aug 11.8 22:26:19 10° NW 22:33:03 27° NNE 22:39:45 10° ENE visible
23 Aug 10.7 00:22:19 10° NW 00:30:21 57° NE 00:34:04 33° ESE visible
23 Aug 10.5 02:18:01 10° NW 02:25:40 47° WSW 02:25:59 47° WSW visible
23 Aug 12.1 20:45:06 10° WNW 20:51:30 24° N 20:57:55 10° NE visible
23 Aug 11.6 22:42:41 10° NW 22:49:45 31° NNE 22:56:47 10° E visible
24 Aug 10.3 00:38:25 10° NW 00:46:35 73° NE 00:49:02 49° ESE visible
24 Aug 10.9 02:34:24 10° NW 02:40:58 33° WSW 02:40:58 33° WSW visible
24 Aug 12.0 21:01:58 10° NW 21:08:19 24° N 21:14:42 10° NE visible
24 Aug 11.3 22:58:56 10° NW 23:06:22 36° NNE 23:12:10 16° E visible
25 Aug 10.1 00:54:32 10° NW 01:02:43 87° SW 01:04:05 66° SSE visible
25 Aug 11.4 02:51:04 10° NW 02:56:01 23° W 02:56:01 23° W visible
25 Aug 11.9 21:18:40 10° NW 21:25:08 25° N 21:31:36 10° ENE visible
25 Aug 11.0 23:15:07 10° NW 23:22:52 44° NE 23:27:16 25° E visible
26 Aug 10.1 01:10:41 10° NW 01:18:44 66° WSW 01:19:12 65° SW visible
26 Aug 11.9 03:08:18 10° WNW 03:11:09 15° W 03:11:09 15° W visible
26 Aug 11.8 21:35:13 10° NW 21:41:55 27° NNE 21:48:37 10° ENE visible
26 Aug 10.6 23:31:15 10° NW 23:39:15 56° NE 23:42:27 37° E visible
27 Aug 10.5 01:26:56 10° NW 01:34:23 48° WSW 01:34:23 48° WSW visible
27 Aug 11.5 21:51:36 10° NW 21:58:38 30° NNE 22:05:39 10° E visible
27 Aug 10.3 23:47:21 10° NW 23:55:30 71° NE 23:57:40 52° ESE visible
28 Aug 11.0 01:43:18 10° NW 01:49:36 34° W 01:49:36 34° W visible
28 Aug 11.3 22:07:52 10° NW 22:15:15 36° NNE 22:20:59 16° E visible
